When you browse on this site, cookies collect data to enhance your experience and personalize the content and advertising you see.
Visit our Privacy Policy to learn more. By continuing to use the site, you agree to this use of cookies and data.
  • In Deutschland
  • Länderverzeichnis
  • Für 7 Tage
  • Wassertemperatur
  • Wetterkarte
  • Widgets
  • user-avatar
    Anmelden

    Stündliche Wetter Duisburg

    Heute, 20 August, Dienstag

    Zeit Temperatur Niederschläge Wind Luftdruck Luftfeuchtigkeit
    00:00 +16°C° 0 mm 3 m/S 762 mmHg 69%
    01:00 +14°C° 0 mm 3 m/S 762 mmHg 71%
    02:00 +14°C° 0 mm 3 m/S 762 mmHg 72%
    03:00 +13°C° 0 mm 3 m/S 762 mmHg 74%
    04:00 +13°C° 0 mm 3 m/S 762 mmHg 74%
    05:00 +14°C° 0 mm 3 m/S 763 mmHg 75%
    06:00 +14°C° 0 mm 3 m/S 763 mmHg 75%
    07:00 +16°C° 0 mm 3 m/S 763 mmHg 70%
    08:00 +18°C° 0 mm 3 m/S 763 mmHg 66%
    09:00 +19°C° 0 mm 3 m/S 763 mmHg 61%
    10:00 +20°C° 0 mm 3 m/S 763 mmHg 56%
    11:00 +21°C° 0 mm 3 m/S 763 mmHg 51%
    12:00 +22°C° 0 mm 3 m/S 763 mmHg 46%
    13:00 +22°C° 0 mm 3 m/S 763 mmHg 46%
    14:00 +24°C° 0 mm 3 m/S 763 mmHg 45%
    15:00 +24°C° 0 mm 3 m/S 764 mmHg 45%
    16:00 +22°C° 0.2 mm 3 m/S 764 mmHg 52%
    17:00 +20°C° 0.2 mm 3 m/S 764 mmHg 58%
    18:00 +19°C° 0.2 mm 2 m/S 764 mmHg 65%
    19:00 +18°C° 0 mm 2 m/S 765 mmHg 66%
    20:00 +17°C° 0 mm 2 m/S 765 mmHg 68%
    21:00 +16°C° 0 mm 2 m/S 766 mmHg 70%
    22:00 +16°C° 0 mm 1 m/S 766 mmHg 72%
    23:00 +15°C° 0 mm 1 m/S 766 mmHg 74%

    Morgen, 21 August, Mittwoch

    Zeit Temperatur Niederschläge Wind Luftdruck Luftfeuchtigkeit
    00:00 +14°C° 0 mm 1 m/S 766 mmHg 76%
    01:00 +14°C° 0 mm 1 m/S 767 mmHg 78%
    02:00 +14°C° 0 mm 1 m/S 767 mmHg 79%
    03:00 +13°C° 0 mm 1 m/S 767 mmHg 80%
    04:00 +14°C° 0 mm 1 m/S 767 mmHg 78%
    05:00 +14°C° 0 mm 1 m/S 767 mmHg 76%
    06:00 +15°C° 0 mm 1 m/S 767 mmHg 74%
    07:00 +18°C° 0 mm 1 m/S 767 mmHg 66%
    08:00 +19°C° 0 mm 1 m/S 767 mmHg 59%
    09:00 +21°C° 0 mm 1 m/S 768 mmHg 52%
    10:00 +22°C° 0 mm 1 m/S 767 mmHg 48%
    11:00 +23°C° 0 mm 1 m/S 767 mmHg 43%
    12:00 +24°C° 0 mm 1 m/S 767 mmHg 39%
    13:00 +24°C° 0 mm 1 m/S 767 mmHg 38%
    14:00 +25°C° 0 mm 1 m/S 766 mmHg 37%
    15:00 +25°C° 0 mm 1 m/S 766 mmHg 35%
    16:00 +24°C° 0 mm 1 m/S 766 mmHg 40%
    17:00 +23°C° 0 mm 1 m/S 766 mmHg 45%
    18:00 +22°C° 0 mm 1 m/S 766 mmHg 49%
    19:00 +20°C° 0 mm 2 m/S 766 mmHg 52%
    20:00 +19°C° 0 mm 2 m/S 766 mmHg 55%
    21:00 +18°C° 0 mm 2 m/S 766 mmHg 57%
    22:00 +17°C° 0 mm 2 m/S 766 mmHg 58%
    23:00 +18°C° 0 mm 1 m/S 766 mmHg 58%

    übermorgen, 22 August, Donnerstag

    Zeit Temperatur Niederschläge Wind Luftdruck Luftfeuchtigkeit
    00:00 +18°C° 0 mm 1 m/S 766 mmHg 58%
    01:00 +16°C° 0 mm 1 m/S 766 mmHg 60%
    02:00 +16°C° 0 mm 1 m/S 766 mmHg 61%
    03:00 +16°C° 0 mm 1 m/S 765 mmHg 63%
    04:00 +16°C° 0 mm 1 m/S 765 mmHg 63%
    05:00 +16°C° 0 mm 1 m/S 766 mmHg 64%
    06:00 +18°C° 0 mm 1 m/S 766 mmHg 64%
    07:00 +18°C° 0 mm 2 m/S 766 mmHg 59%
    08:00 +20°C° 0 mm 2 m/S 766 mmHg 54%
    09:00 +23°C° 0 mm 2 m/S 766 mmHg 49%
    10:00 +24°C° 0 mm 2 m/S 766 mmHg 46%
    11:00 +25°C° 0 mm 2 m/S 765 mmHg 43%
    12:00 +26°C° 0 mm 2 m/S 765 mmHg 40%
    13:00 +26°C° 0 mm 2 m/S 765 mmHg 39%
    14:00 +26°C° 0 mm 3 m/S 765 mmHg 38%
    15:00 +26°C° 0 mm 3 m/S 765 mmHg 37%
    16:00 +25°C° 0 mm 2 m/S 765 mmHg 43%
    17:00 +24°C° 0 mm 2 m/S 765 mmHg 48%
    18:00 +23°C° 0 mm 2 m/S 765 mmHg 53%
    19:00 +21°C° 0 mm 2 m/S 766 mmHg 56%
    20:00 +20°C° 0 mm 2 m/S 766 mmHg 59%
    21:00 +20°C° 0 mm 1 m/S 767 mmHg 63%
    22:00 +19°C° 0 mm 1 m/S 767 mmHg 63%
    23:00 +19°C° 0 mm 1 m/S 767 mmHg 64%

    23 August, Freitag

    Zeit Temperatur Niederschläge Wind Luftdruck Luftfeuchtigkeit
    00:00 +18°C° 0 mm 1 m/S 766 mmHg 65%
    01:00 +18°C° 0 mm 1 m/S 766 mmHg 66%
    02:00 +18°C° 0 mm 1 m/S 766 mmHg 66%
    03:00 +18°C° 0 mm 1 m/S 766 mmHg 67%
    04:00 +18°C° 0 mm 1 m/S 766 mmHg 66%
    05:00 +19°C° 0 mm 1 m/S 766 mmHg 65%
    06:00 +19°C° 0 mm 1 m/S 766 mmHg 64%
    07:00 +21°C° 0 mm 1 m/S 766 mmHg 58%
    08:00 +23°C° 0 mm 1 m/S 766 mmHg 51%
    09:00 +25°C° 0 mm 1 m/S 766 mmHg 45%
    10:00 +26°C° 0 mm 1 m/S 766 mmHg 41%
    11:00 +28°C° 0 mm 1 m/S 766 mmHg 38%
    12:00 +29°C° 0 mm 1 m/S 765 mmHg 35%
    13:00 +29°C° 0 mm 1 m/S 765 mmHg 34%
    14:00 +30°C° 0 mm 1 m/S 765 mmHg 33%
    15:00 +30°C° 0 mm 2 m/S 764 mmHg 32%
    16:00 +29°C° 0 mm 2 m/S 764 mmHg 38%
    17:00 +27°C° 0 mm 2 m/S 764 mmHg 43%
    18:00 +26°C° 0 mm 3 m/S 764 mmHg 49%
    19:00 +25°C° 0 mm 3 m/S 764 mmHg 51%
    20:00 +24°C° 0 mm 2 m/S 764 mmHg 53%
    21:00 +23°C° 0 mm 2 m/S 764 mmHg 55%
    22:00 +21°C° 0 mm 2 m/S 764 mmHg 56%
    23:00 +21°C° 0 mm 2 m/S 764 mmHg 57%

    24 August, Samstag

    Zeit Temperatur Niederschläge Wind Luftdruck Luftfeuchtigkeit
    00:00 +20°C° 0 mm 2 m/S 763 mmHg 58%
    01:00 +20°C° 0 mm 2 m/S 763 mmHg 58%
    02:00 +20°C° 0 mm 2 m/S 763 mmHg 59%
    03:00 +19°C° 0 mm 2 m/S 762 mmHg 59%
    04:00 +21°C° 0 mm 1 m/S 762 mmHg 60%
    05:00 +21°C° 0 mm 1 m/S 762 mmHg 61%
    06:00 +21°C° 0 mm 1 m/S 762 mmHg 63%
    07:00 +23°C° 0 mm 1 m/S 762 mmHg 57%
    08:00 +25°C° 0 mm 1 m/S 762 mmHg 51%
    09:00 +27°C° 0 mm 1 m/S 762 mmHg 46%
    10:00 +28°C° 0 mm 1 m/S 761 mmHg 42%
    11:00 +29°C° 0 mm 1 m/S 761 mmHg 38%
    12:00 +30°C° 0 mm 2 m/S 761 mmHg 33%
    13:00 +31°C° 0 mm 2 m/S 760 mmHg 32%
    14:00 +31°C° 0 mm 1 m/S 760 mmHg 30%
    15:00 +31°C° 0 mm 1 m/S 760 mmHg 29%
    16:00 +30°C° 0 mm 1 m/S 759 mmHg 35%
    17:00 +28°C° 0 mm 2 m/S 759 mmHg 40%
    18:00 +27°C° 0 mm 2 m/S 759 mmHg 46%
    19:00 +26°C° 0 mm 2 m/S 759 mmHg 48%
    20:00 +25°C° 0 mm 2 m/S 760 mmHg 50%
    21:00 +24°C° 0 mm 1 m/S 760 mmHg 52%
    22:00 +24°C° 0 mm 1 m/S 760 mmHg 54%
    23:00 +23°C° 0 mm 1 m/S 760 mmHg 56%

    25 August, Sonntag

    Zeit Temperatur Niederschläge Wind Luftdruck Luftfeuchtigkeit
    00:00 +23°C° 0 mm 1 m/S 759 mmHg 57%
    01:00 +22°C° 0 mm 1 m/S 759 mmHg 59%
    02:00 +22°C° 0 mm 1 m/S 759 mmHg 61%
    03:00 +22°C° 0 mm 1 m/S 759 mmHg 63%
    04:00 +22°C° 0 mm 1 m/S 759 mmHg 64%
    05:00 +22°C° 0 mm 1 m/S 759 mmHg 65%
    06:00 +23°C° 0 mm 1 m/S 759 mmHg 65%
    07:00 +24°C° 0 mm 1 m/S 759 mmHg 61%
    08:00 +26°C° 0 mm 1 m/S 759 mmHg 56%
    09:00 +28°C° 0 mm 1 m/S 759 mmHg 51%
    10:00 +29°C° 0 mm 1 m/S 759 mmHg 47%
    11:00 +30°C° 0 mm 1 m/S 759 mmHg 44%
    12:00 +31°C° 0 mm 1 m/S 758 mmHg 40%
    13:00 +31°C° 0 mm 2 m/S 758 mmHg 39%
    14:00 +31°C° 0 mm 2 m/S 758 mmHg 38%
    15:00 +31°C° 0 mm 3 m/S 758 mmHg 37%
    16:00 +30°C° 0 mm 3 m/S 758 mmHg 43%
    17:00 +28°C° 0 mm 3 m/S 758 mmHg 48%
    18:00 +27°C° 0 mm 3 m/S 758 mmHg 54%
    19:00 +26°C° 0 mm 2 m/S 758 mmHg 55%
    20:00 +25°C° 0 mm 2 m/S 758 mmHg 56%
    21:00 +24°C° 0 mm 1 m/S 759 mmHg 57%
    22:00 +23°C° 0 mm 1 m/S 759 mmHg 60%
    23:00 +23°C° 0 mm 1 m/S 759 mmHg 62%
    Mehr zeigen